Home   Weather   Bonn   Past weeks

Flag for Germany Past Weather in Bonn, North Rhine-Westphalia, Germany — Yesterday and Last 2 Weeks

Now
72 °F

Sunny.


Feels Like: 77 °F
Forecast: 57 / 82 °F
Wind: 7 mph from East

Location: Aachen-Orsbach

Current Time: May 26, 2017 at 3:17:54 pm

Latest Report: May 26, 2017 at 1:00 pm


Visibility: 14 mi

Pressure: 30.15 "Hg

Humidity: 50%

Dew Point: 52 °F

Location of BonnLocation

Past Weather in Bonn — Graph

°F

Bonn Temperature Yesterday

Maximum temperature yesterday: 70 °F (at 4:00 pm)
Minimum temperature yesterday: 52 °F (at 6:00 am)
Average temperature yesterday: 61 °F

High & Low Weather Summary for the Past Weeks

 TemperatureHumidityPressure
High80 °F (May 17, 4:00 pm)97% (May 18, 10:00 pm)30.41 "Hg (May 18, 10:00 pm)
Low45 °F (May 21, 4:00 am)31% (May 15, 1:00 pm)29.38 "Hg (May 11, 6:00 pm)
Average61 °F68%30.06 "Hg
* Reported May 11 1:00 pm — May 26 1:00 pm, Bonn. Weather by CustomWeather, © 2017

Note: Actual official high and low records may vary slightly from our data, if they occured in-between our weather recording intervals... More about our weather records

Advertising

Bonn Weather History for the Previous 24 Hours

Scroll right to see more
 ConditionsComfort  
Time TempWeatherWind HumidityBarometerVisibility
1:00 pm
Fri, May 26
72 °FSunny.7 mph50%30.15 "Hg14 mi
12:00 pm70 °FSunny.6 mph55%30.16 "Hg13 mi
10:00 am66 °FSunny.7 mph59%30.19 "Hg7 mi
9:00 am63 °FSunny.7 mph73%30.19 "Hg6 mi
8:00 amN/APassing clouds.8 mphN/AN/A11 mi
7:00 am55 °FSunny.5 mph88%30.20 "Hg6 mi
6:00 am52 °FSunny.3 mph91%30.20 "Hg9 mi
4:00 am52 °FClear.3 mph90%30.19 "Hg9 mi
3:00 am53 °FClear.3 mph89%30.19 "Hg11 mi
1:00 am57 °FClear.3 mph80%30.20 "Hg19 mi
12:00 am57 °FClear.3 mph80%30.20 "Hg19 mi
10:00 pm
Thu, May 25
62 °FClear.5 mph69%30.19 "Hg25 mi
9:00 pm67 °FSunny.3 mph57%30.18 "Hg28 mi
7:00 pm70 °FSunny.3 mph53%30.19 "Hg22 mi
6:00 pm70 °FSunny.3 mph53%30.20 "Hg19 mi
4:00 pm70 °FSunny.5 mph55%30.22 "Hg19 mi
3:00 pm68 °FSunny.3 mph55%30.24 "Hg34 mi
Weather by CustomWeather, © 2017

See weather overviewHow to use our weather pages